[[{"header":{"parameterUnit":"m.s-1","parameterCategory":1,"la1":30.2991,"la2":30.254,"lo1":-89.0895,"lo2":-89.0444,"dy":0.0017,"dx":0.0017,"nx":28,"ny":28,"refTime":"2025-06-14T09:00:00:Z","depth":0,"parameterNumber":2,"parameterNumberName":"U-component_of_WINDS"},"data":[0,0,0,0,0,0,0,0,0,0,0,0,0,0,0,0,0,0,0,0,0,0,0,0,0,0,0,0,0,0,0,0,0,0,0,0,0,0,0,0,0,0,0,0,0,0,0,0,0,0,0,0,0,0,0,0,0,0,-0.2564,-0.2563,0,-0.2535,-0.2535,-0.2534,-0.2522,-0.2522,-0.2523,-0.2523,-0.2494,-0.2493,-0.2492,0,0,0,0,0,0,0,0,0,0,0,0,0,-0.261,-0.2609,-0.2564,-0.2563,-0.2563,-0.2535,-0.2535,-0.2534,-0.2522,-0.2522,-0.2523,-0.2523,-0.2494,-0.2493,-0.2492,0,0,0,0,0,0,0,0,0,0,0,0,0,-0.2586,-0.2608,-0.2564,-0.2554,-0.2553,-0.2535,-0.2535,-0.2534,-0.2522,-0.2522,-0.2523,-0.2523,-0.2494,-0.2493,-0.2492,-0.2482,0,0,-0.2488,-0.2487,0,0,0,0,0,0,0,0,-0.2587,-0.2584,-0.2556,-0.2554,-0.2553,-0.2532,-0.254,-0.2517,-0.2522,-0.2534,-0.2523,-0.2523,-0.2506,-0.2504,-0.2499,-0.2481,-0.248,-0.2488,-0.2487,-0.2487,-0.2486,0,0,0,0,0,0,0,-0.2589,-0.2586,-0.2552,-0.2555,-0.2554,-0.2551,-0.2548,-0.2536,-0.252,-0.2533,-0.2532,-0.2529,-0.2506,-0.25,-0.2498,-0.2479,-0.2488,-0.2487,-0.2486,-0.2486,-0.2453,-0.2453,0,0,0,0,0,0,-0.2592,-0.2587,-0.2553,-0.2552,-0.2571,-0.255,-0.2546,-0.2539,-0.252,-0.2517,-0.2529,-0.2528,-0.2502,-0.2499,-0.2497,-0.2485,-0.2487,-0.2485,-0.2485,-0.2453,-0.2453,-0.2453,0,0,0,0,0,0,-0.2593,-0.2589,-0.2554,-0.2569,-0.2564,-0.2549,-0.2541,-0.2538,-0.2532,-0.2517,-0.2514,-0.2525,-0.2502,-0.2499,-0.2486,-0.2483,-0.2485,-0.2484,-0.2453,-0.2453,-0.2453,-0.246,0,0,0,0,0,0,-0.2595,-0.259,-0.2586,-0.2569,-0.2564,-0.2544,-0.2541,-0.2538,-0.253,-0.2529,-0.2513,-0.251,-0.2502,-0.2488,-0.2485,-0.2482,-0.2483,-0.2453,-0.2453,-0.2453,-0.246,-0.246,-0.2461,0,0,0,0,0,-0.2596,-0.2589,-0.2586,-0.2582,-0.2558,-0.2544,-0.2541,-0.2531,-0.253,-0.2526,-0.2516,-0.2511,-0.2484,-0.2487,-0.2483,-0.248,-0.2453,-0.2453,-0.2453,-0.246,-0.246,-0.2461,0,0,0,0,0,0,-0.2606,-0.2587,-0.2583,-0.257,-0.2559,-0.2542,-0.2537,-0.2531,-0.252,-0.252,-0.2508,-0.2504,-0.2493,-0.2485,-0.2488,-0.247,-0.2468,-0.2467,-0.2475,-0.2475,-0.2476,-0.2478,-0.2482,0,0,0,0,0,-0.2607,-0.2596,-0.258,-0.257,-0.2565,-0.2552,-0.2545,-0.2538,-0.2526,-0.2521,-0.2511,-0.2499,-0.2488,-0.2481,-0.2471,-0.2459,-0.2455,-0.2455,-0.2455,-0.2455,-0.2455,-0.2448,-0.2448,-0.2452,-0.2452,-0.2452,0,0,-0.2608,-0.2596,-0.259,-0.2572,-0.2563,-0.2552,-0.2548,-0.2537,-0.253,-0.252,-0.2507,-0.2499,-0.2486,-0.2474,-0.2468,-0.2467,-0.2453,-0.2455,-0.2455,-0.2454,-0.2448,-0.2448,-0.2447,-0.2451,-0.2452,-0.2452,0,0,-0.2605,-0.2595,-0.2586,-0.2577,-0.2562,-0.2554,-0.2552,-0.2536,-0.253,-0.2517,-0.251,-0.2501,-0.2482,-0.2473,-0.2466,-0.246,-0.2455,-0.2457,-0.2458,-0.2451,-0.2451,-0.2451,-0.2449,-0.2448,-0.2456,-0.2456,-0.2456,0,-0.2609,-0.2593,-0.2582,-0.2572,-0.2564,-0.2555,-0.2546,-0.2537,-0.252,-0.2515,-0.2514,-0.2491,-0.2481,-0.2467,-0.2466,-0.246,-0.2458,-0.2458,-0.2452,-0.2452,-0.2451,-0.2449,-0.2448,-0.2456,-0.2456,-0.2456,-0.2456,0,-0.2598,-0.2587,-0.2582,-0.2565,-0.2557,-0.2547,-0.2535,-0.2528,-0.2522,-0.2514,-0.2501,-0.2489,-0.2476,-0.2472,-0.2466,-0.2457,-0.2457,-0.2454,-0.2453,-0.2451,-0.2449,-0.2448,-0.2457,-0.2457,-0.2457,-0.2456,0,0,-0.26,-0.2578,-0.2576,-0.2569,-0.2553,-0.2544,-0.2535,-0.2521,-0.2516,-0.2504,-0.2496,-0.2481,-0.2478,-0.247,-0.2463,-0.2457,-0.2454,-0.2455,-0.2455,-0.2455,-0.2444,-0.2446,-0.2445,-0.245,-0.245,-0.245,-0.2445,0,-0.2595,-0.2577,-0.2567,-0.2553,-0.2544,-0.2535,-0.2526,-0.2516,-0.2507,-0.2498,-0.2489,-0.2479,-0.2476,-0.2471,-0.2465,-0.2456,-0.2451,-0.2456,-0.2443,-0.2442,-0.2446,-0.2444,-0.2446,-0.2442,-0.2444,-0.2444,-0.2444,0,-0.2587,-0.2576,-0.2561,-0.2546,-0.2542,-0.2534,-0.2521,-0.2512,-0.25,-0.2495,-0.2486,-0.2479,-0.2469,-0.2468,-0.2454,-0.2457,-0.2451,-0.2445,-0.2445,-0.2443,-0.2443,-0.2443,-0.244,-0.244,-0.2442,-0.2442,-0.2442,0,-0.259,-0.2572,-0.256,-0.2554,-0.2537,-0.2532,-0.2524,-0.2512,-0.2505,-0.2494,-0.2489,-0.2477,-0.247,-0.2461,-0.2452,-0.2452,-0.2438,-0.2437,-0.2434,-0.2434,-0.2431,-0.2431,-0.2428,-0.2427,-0.2427,-0.2427,-0.2427,0,-0.2586,-0.2577,-0.2562,-0.2555,-0.2545,-0.2534,-0.2525,-0.2516,-0.2506,-0.2497,-0.2489,-0.2481,-0.2468,-0.2459,-0.2451,-0.2441,-0.2438,-0.2433,-0.2431,-0.2434,-0.2435,-0.243,-0.243,-0.2427,-0.2427,-0.2427,-0.2427,0,-0.2588,-0.2577,-0.2564,-0.2549,-0.2545,-0.2538,-0.2525,-0.2518,-0.251,-0.2499,-0.2496,-0.2483,-0.2472,-0.2461,-0.2446,-0.2441,-0.243,-0.2427,-0.2434,-0.2433,-0.2431,-0.2431,-0.2424,-0.2423,-0.2423,-0.2423,-0.2423,0,-0.2586,-0.2579,-0.2563,-0.2557,-0.2549,-0.2539,-0.2532,-0.2521,-0.2514,-0.2499,-0.2494,-0.2482,-0.2472,-0.2455,-0.2444,-0.2432,-0.2429,-0.2428,-0.2428,-0.2431,-0.243,-0.243,-0.2429,-0.2428,-0.2428,-0.2428,-0.2428,0,-0.2584,-0.2579,-0.2568,-0.2556,-0.2548,-0.2538,-0.2527,-0.2523,-0.251,-0.2502,-0.2491,-0.2483,-0.2467,-0.2456,-0.2443,-0.2435,-0.243,-0.2428,-0.2427,-0.243,-0.2434,-0.2432,-0.2435,-0.2429,-0.2429,-0.2428,-0.2428,-0.2428,-0.2584,-0.2577,-0.2565,-0.2554,-0.2545,-0.2536,-0.2528,-0.2519,-0.2509,-0.2496,-0.249,-0.2478,-0.2466,-0.2449,-0.2441,-0.2432,-0.2431,-0.2429,-0.2428,-0.2428,-0.2429,-0.2435,-0.243,-0.243,-0.243,-0.243,-0.243,0,-0.2581,-0.2573,-0.2562,-0.2548,-0.254,-0.2535,-0.2524,-0.2517,-0.2506,-0.2496,-0.2486,-0.2473,-0.2462,-0.245,-0.2438,-0.2433,-0.243,-0.243,-0.2431,-0.2429,-0.243,-0.2433,-0.2433,-0.2433,-0.2433,-0.2433,-0.2433,-0.2433,-0.2578,-0.2567,-0.2561,-0.2546,-0.2537,-0.2526,-0.252,-0.2511,-0.2503,-0.2488,-0.2479,-0.2471,-0.246,-0.2448,-0.2437,-0.2434,-0.243,-0.2431,-0.2427,-0.2429,-0.2429,-0.2429,-0.2431,-0.243,-0.243,-0.2426,-0.2426,-0.2426]},{"header":{"parameterUnit":"m.s-1","parameterCategory":1,"la1":30.2991,"la2":30.254,"lo1":-89.0895,"lo2":-89.0444,"dy":0.0017,"dx":0.0017,"nx":28,"ny":28,"refTime":"2025-06-14T09:00:00:Z","depth":0,"parameterNumber":3,"parameterNumberName":"V-component_of_WINDS"},"data":[0,0,0,0,0,0,0,0,0,0,0,0,0,0,0,0,0,0,0,0,0,0,0,0,0,0,0,0,0,0,0,0,0,0,0,0,0,0,0,0,0,0,0,0,0,0,0,0,0,0,0,0,0,0,0,0,0,0,3.1883,3.1884,0,3.192,3.192,3.1921,3.1829,3.1826,3.1823,3.182,3.1858,3.1861,3.1865,0,0,0,0,0,0,0,0,0,0,0,0,0,3.1732,3.1735,3.1883,3.1884,3.1884,3.192,3.192,3.1921,3.1829,3.1826,3.1822,3.1819,3.1857,3.1861,3.1865,0,0,0,0,0,0,0,0,0,0,0,0,0,3.1786,3.1737,3.1883,3.1843,3.1839,3.192,3.192,3.1921,3.183,3.1826,3.1821,3.1817,3.1855,3.1861,3.1866,3.1987,0,0,3.1883,3.1885,0,0,0,0,0,0,0,0,3.1783,3.1792,3.1848,3.1846,3.1842,3.1865,3.1881,3.1943,3.1831,3.1834,3.182,3.1815,3.1864,3.1868,3.1885,3.1989,3.1991,3.1884,3.1887,3.1889,3.1891,0,0,0,0,0,0,0,3.178,3.179,3.1898,3.1849,3.1845,3.1822,3.1825,3.1892,3.1873,3.1833,3.1826,3.1832,3.1861,3.188,3.1885,3.1991,3.1883,3.1888,3.1892,3.1894,3.2193,3.2198,0,0,0,0,0,0,3.1781,3.1787,3.1896,3.1899,3.1801,3.1828,3.1832,3.1862,3.1872,3.1869,3.1836,3.1828,3.1872,3.1879,3.1886,3.2026,3.1889,3.1894,3.1898,3.2189,3.2195,3.2199,0,0,0,0,0,0,3.1778,3.1792,3.1895,3.1841,3.1853,3.1836,3.1871,3.1865,3.1883,3.1874,3.187,3.1858,3.1869,3.1878,3.1962,3.2026,3.1897,3.1902,3.2183,3.2191,3.2197,3.231,0,0,0,0,0,0,3.1774,3.1791,3.1838,3.1843,3.1856,3.1971,3.1875,3.1869,3.1893,3.1883,3.1894,3.1891,3.1866,3.1954,3.1968,3.2032,3.1906,3.2178,3.2187,3.2195,3.23,3.232,3.2336,0,0,0,0,0,3.1769,3.1869,3.1841,3.1854,3.1913,3.1975,3.1982,3.1952,3.1899,3.1945,3.1938,3.1891,3.2018,3.1964,3.1978,3.2045,3.2173,3.2184,3.2194,3.2292,3.2316,3.2336,0,0,0,0,0,0,3.1872,3.1869,3.1838,3.1942,3.1959,3.196,3.2017,3.1979,3.2012,3.2001,3.1961,3.1965,3.2056,3.2058,3.1999,3.2161,3.2086,3.21,3.2156,3.2178,3.2196,3.2193,3.1911,0,0,0,0,0,3.1907,3.1958,3.1952,3.2044,3.2054,3.2034,3.206,3.2035,3.2052,3.2059,3.2058,3.2076,3.2119,3.2149,3.2189,3.23,3.23,3.2353,3.2371,3.2386,3.2398,3.2455,3.2478,3.2234,3.2234,3.2233,0,0,3.198,3.1984,3.2018,3.2065,3.2076,3.2128,3.2041,3.2101,3.2139,3.2068,3.2146,3.2147,3.2164,3.2262,3.2304,3.2267,3.2465,3.2399,3.2411,3.2415,3.2468,3.2491,3.2511,3.2241,3.2239,3.2238,0,0,3.2138,3.2147,3.2224,3.2236,3.2253,3.2238,3.2257,3.2263,3.226,3.2338,3.2285,3.2329,3.2406,3.2419,3.2437,3.2598,3.2555,3.2612,3.2706,3.2762,3.2781,3.2798,3.2854,3.2875,3.2624,3.2625,3.2625,0,3.2226,3.2303,3.2268,3.2331,3.2352,3.2289,3.2366,3.2379,3.2409,3.2424,3.2382,3.2474,3.2482,3.258,3.262,3.2636,3.2655,3.261,3.2781,3.2798,3.2813,3.2866,3.2887,3.2631,3.2631,3.263,3.2629,0,3.2409,3.2464,3.2523,3.2552,3.258,3.265,3.2625,3.2657,3.2629,3.2619,3.2698,3.2704,3.2743,3.2765,3.2739,3.286,3.2835,3.2788,3.2712,3.2844,3.2892,3.2912,3.2641,3.2638,3.2636,3.2635,0,0,3.2635,3.2641,3.2664,3.2675,3.2688,3.2729,3.2795,3.2833,3.286,3.2882,3.2936,3.3001,3.2956,3.2976,3.295,3.2999,3.3124,3.2945,3.2945,3.2977,3.3255,3.329,3.3314,3.3096,3.31,3.3103,3.3253,0,3.2789,3.2902,3.2872,3.2984,3.3032,3.2972,3.3029,3.3043,3.3035,3.3075,3.3065,3.3111,3.305,3.3061,3.3107,3.3099,3.3179,3.3088,3.3144,3.3146,3.314,3.334,3.3377,3.3519,3.3272,3.3276,3.3278,0,3.2986,3.3014,3.3131,3.3134,3.3153,3.3205,3.3235,3.3274,3.3288,3.3278,3.3299,3.3263,3.3327,3.3251,3.3337,3.3276,3.3297,3.3296,3.3301,3.3304,3.322,3.3347,3.3564,3.3585,3.3308,3.3306,3.3303,0,3.3136,3.3203,3.3281,3.3293,3.3299,3.3336,3.3341,3.335,3.3374,3.34,3.3415,3.3449,3.3468,3.3494,3.3468,3.3415,3.3558,3.348,3.3551,3.3551,3.3583,3.3581,3.3805,3.3599,3.3598,3.3598,3.3598,0,3.3311,3.3385,3.3348,3.3397,3.3476,3.344,3.352,3.3517,3.3526,3.3571,3.3522,3.3566,3.3529,3.3569,3.3549,3.3622,3.3632,3.3625,3.3618,3.3629,3.3629,3.3641,3.363,3.3604,3.3602,3.3601,3.36,0,3.3493,3.3471,3.3552,3.355,3.3551,3.361,3.3608,3.3652,3.364,3.3698,3.371,3.369,3.3735,3.3711,3.3758,3.3744,3.3839,3.382,3.3834,3.3828,3.3899,3.3893,3.4138,3.4167,3.3944,3.3946,3.3948,0,3.3606,3.366,3.3664,3.3691,3.3698,3.3742,3.3765,3.3731,3.3757,3.3776,3.3817,3.3857,3.3887,3.3961,3.3951,3.3986,3.3966,3.405,3.3971,3.3979,3.3966,3.3962,3.3967,3.4065,3.4068,3.407,3.4072,0,3.3808,3.3794,3.3829,3.3861,3.389,3.3913,3.3932,3.3957,3.3923,3.3955,3.3999,3.4023,3.4069,3.4109,3.4139,3.4142,3.4101,3.4097,3.4114,3.4125,3.413,3.4127,3.3875,3.4091,3.4089,3.4088,3.4087,3.4086,3.3957,3.4002,3.4011,3.4051,3.4062,3.408,3.4121,3.4113,3.4149,3.4184,3.4161,3.4214,3.4224,3.4259,3.4268,3.4307,3.4274,3.43,3.4306,3.4313,3.4322,3.4125,3.4313,3.4312,3.4311,3.4311,3.4311,0,3.4155,3.4157,3.4195,3.4222,3.4254,3.4212,3.4231,3.426,3.4306,3.4319,3.4349,3.4399,3.4437,3.443,3.4464,3.4497,3.4479,3.4507,3.4503,3.4504,3.4351,3.4331,3.4521,3.452,3.452,3.452,3.452,3.452,3.4261,3.4335,3.4322,3.4399,3.44,3.445,3.4464,3.4481,3.449,3.4548,3.4579,3.4574,3.4578,3.4612,3.4644,3.4641,3.4655,3.469,3.468,3.4536,3.4515,3.4496,3.4477,3.4694,3.4694,3.4829,3.4831,3.4832]}]]